SWA1668 KDAL-KSAT

Flight info

Callsign SWA1668
Flight time 0h 44m
Altitude 34000
Route CURLO6 WINDU QERVO3
Aircraft B737/M-SADE2E3GIJ4RWZ/LB1D1

Departure

Time 2026-04-25 11:06
Airport Dallas Love Field (KDAL)

Arrival

Time 2026-04-25 11:50
Airport San Antonio International Airport (KSAT)
Time Latitude Longitude Altitude Speed Heading
2026-04-25 10:28 32.84563 -96.85104 482 ft 0 kts
2026-04-25 10:55 32.84554 -96.85104 476 ft 4 kts 359°
2026-04-25 10:55 32.84528 -96.85100 479 ft 4 kts 337°
2026-04-25 10:55 32.84512 -96.85083 474 ft 3 kts 273°
2026-04-25 10:56 32.84511 -96.85080 477 ft 1 kts 271°
2026-04-25 10:59 32.84512 -96.85085 474 ft 3 kts 271°
2026-04-25 10:59 32.84512 -96.85140 482 ft 11 kts 271°
2026-04-25 11:00 32.84513 -96.85238 482 ft 12 kts 270°
2026-04-25 11:00 32.84505 -96.85330 482 ft 10 kts 236°
2026-04-25 11:00 32.84466 -96.85379 482 ft 8 kts 276°
2026-04-25 11:00 32.84506 -96.85436 482 ft 11 kts 314°
2026-04-25 11:01 32.84572 -96.85512 483 ft 16 kts 316°
2026-04-25 11:01 32.84663 -96.85617 478 ft 20 kts 315°
2026-04-25 11:01 32.84765 -96.85737 483 ft 20 kts 316°
2026-04-25 11:01 32.84862 -96.85848 481 ft 18 kts 316°
2026-04-25 11:02 32.84949 -96.85948 483 ft 16 kts 315°
2026-04-25 11:02 32.85027 -96.86039 482 ft 15 kts 315°
2026-04-25 11:02 32.85099 -96.86122 482 ft 13 kts 316°
2026-04-25 11:02 32.85162 -96.86196 482 ft 11 kts 315°
2026-04-25 11:03 32.85188 -96.86248 482 ft 0 kts 263°
2026-04-25 11:05 32.85158 -96.86293 480 ft 10 kts 224°
2026-04-25 11:05 32.85112 -96.86319 477 ft 5 kts 158°
2026-04-25 11:05 32.85103 -96.86310 477 ft 0 kts 136°
2026-04-25 11:05 32.85040 -96.86237 479 ft 44 kts 136°
2026-04-25 11:06 32.84639 -96.85775 484 ft 114 kts 136°
2026-04-25 11:06 32.83933 -96.84958 566 ft 162 kts 135°
2026-04-25 11:06 32.83135 -96.84022 1346 ft 161 kts 137°
2026-04-25 11:06 32.82353 -96.83067 2115 ft 166 kts 143°
2026-04-25 11:07 32.81475 -96.81984 2394 ft 197 kts 143°
2026-04-25 11:07 32.80462 -96.80732 2611 ft 225 kts 142°
2026-04-25 11:07 32.79315 -96.79304 2935 ft 250 kts 142°
2026-04-25 11:07 32.78097 -96.77772 3639 ft 261 kts 141°
2026-04-25 11:08 32.76808 -96.76161 4211 ft 277 kts 141°
2026-04-25 11:08 32.75450 -96.74476 4895 ft 287 kts 142°
2026-04-25 11:08 32.74023 -96.72806 5594 ft 291 kts 142°
2026-04-25 11:08 32.72472 -96.71290 5913 ft 286 kts 159°
2026-04-25 11:09 32.70619 -96.70646 5999 ft 279 kts 184°
2026-04-25 11:09 32.68752 -96.70949 6012 ft 267 kts 205°
2026-04-25 11:09 32.67073 -96.71820 6036 ft 263 kts 211°
2026-04-25 11:09 32.65407 -96.72756 6473 ft 267 kts 210°
2026-04-25 11:10 32.63714 -96.73703 7514 ft 269 kts 210°
2026-04-25 11:10 32.62586 -96.74329 8226 ft 271 kts 210°
2026-04-25 11:10 32.60376 -96.75818 9529 ft 276 kts 220°
2026-04-25 11:10 32.58849 -96.77228 10409 ft 283 kts 223°
2026-04-25 11:11 32.57259 -96.78774 10752 ft 311 kts 223°
2026-04-25 11:11 32.55518 -96.80475 11088 ft 334 kts 222°
2026-04-25 11:11 32.53697 -96.82233 11894 ft 340 kts 222°
2026-04-25 11:11 32.51845 -96.84001 12804 ft 344 kts 222°
2026-04-25 11:12 32.49974 -96.85772 13727 ft 346 kts 222°
2026-04-25 11:12 32.48080 -96.87556 14544 ft 349 kts 222°
2026-04-25 11:12 32.46175 -96.89346 15376 ft 351 kts 222°
2026-04-25 11:12 32.44248 -96.91156 16217 ft 354 kts 222°
2026-04-25 11:13 32.42305 -96.92980 17050 ft 357 kts 222°
2026-04-25 11:13 32.40371 -96.94793 17858 ft 360 kts 223°
2026-04-25 11:13 32.38399 -96.96642 18566 ft 364 kts 223°
2026-04-25 11:13 32.36399 -96.98516 19236 ft 368 kts 223°
2026-04-25 11:14 32.34381 -97.00404 19919 ft 372 kts 223°
2026-04-25 11:14 32.32339 -97.02315 20602 ft 376 kts 223°
2026-04-25 11:14 32.30264 -97.04216 21261 ft 381 kts 219°
2026-04-25 11:14 32.27842 -97.05604 21890 ft 396 kts 203°
2026-04-25 11:15 32.25079 -97.06152 22569 ft 409 kts 189°
2026-04-25 11:15 32.22219 -97.06286 23205 ft 415 kts 187°
2026-04-25 11:15 32.19309 -97.06346 23724 ft 420 kts 187°
2026-04-25 11:15 32.16374 -97.06389 24211 ft 424 kts 187°
2026-04-25 11:16 32.10425 -97.06505 25197 ft 431 kts 187°
2026-04-25 11:16 32.07420 -97.06585 25692 ft 434 kts 188°
2026-04-25 11:16 32.04385 -97.06673 26172 ft 437 kts 188°
2026-04-25 11:17 32.01335 -97.06768 26637 ft 441 kts 188°
2026-04-25 11:17 31.98255 -97.06867 27095 ft 444 kts 188°
2026-04-25 11:17 31.95160 -97.06966 27577 ft 446 kts 189°
2026-04-25 11:17 31.92055 -97.07066 27797 ft 448 kts 189°
2026-04-25 11:18 31.88943 -97.07164 27800 ft 444 kts 189°
2026-04-25 11:18 31.85866 -97.07259 27788 ft 440 kts 189°
2026-04-25 11:18 31.82812 -97.07354 27793 ft 439 kts 189°
2026-04-25 11:18 31.79754 -97.07453 27800 ft 441 kts 189°
2026-04-25 11:19 31.76682 -97.07553 27803 ft 442 kts 189°
2026-04-25 11:19 31.73614 -97.07652 27796 ft 442 kts 189°
2026-04-25 11:19 31.70576 -97.07748 27801 ft 442 kts 189°
2026-04-25 11:19 31.67458 -97.07846 27803 ft 443 kts 189°
2026-04-25 11:20 31.64377 -97.07943 27803 ft 442 kts 189°
2026-04-25 11:20 31.61348 -97.08038 27808 ft 441 kts 189°
2026-04-25 11:20 31.58279 -97.08136 27808 ft 441 kts 189°
2026-04-25 11:20 31.55218 -97.08233 27801 ft 440 kts 190°
2026-04-25 11:21 31.52197 -97.08548 27786 ft 428 kts 202°
2026-04-25 11:21 31.49400 -97.09583 27826 ft 420 kts 207°
2026-04-25 11:21 31.46637 -97.10713 27808 ft 420 kts 207°
2026-04-25 11:21 31.43881 -97.11841 27804 ft 421 kts 207°
2026-04-25 11:22 31.41110 -97.12959 27798 ft 421 kts 207°
2026-04-25 11:22 31.39274 -97.13690 27802 ft 421 kts 207°
2026-04-25 11:22 31.35549 -97.15153 27807 ft 422 kts 206°
2026-04-25 11:22 31.32764 -97.16239 27795 ft 422 kts 206°
2026-04-25 11:23 31.29976 -97.17323 27796 ft 422 kts 206°
2026-04-25 11:23 31.27190 -97.18405 27797 ft 423 kts 206°
2026-04-25 11:23 31.24397 -97.19491 27802 ft 422 kts 207°
2026-04-25 11:23 31.21689 -97.20543 27802 ft 423 kts 206°
2026-04-25 11:24 31.18893 -97.21630 27807 ft 423 kts 207°
2026-04-25 11:24 31.16105 -97.22716 27812 ft 423 kts 207°
2026-04-25 11:24 31.13310 -97.23806 27812 ft 423 kts 207°
2026-04-25 11:24 31.10522 -97.24893 27810 ft 423 kts 207°
2026-04-25 11:25 31.07768 -97.25966 27816 ft 423 kts 207°
2026-04-25 11:25 31.04978 -97.27052 27810 ft 423 kts 207°
2026-04-25 11:25 31.02187 -97.28138 27810 ft 423 kts 207°
2026-04-25 11:25 30.99393 -97.29226 27810 ft 423 kts 207°
2026-04-25 11:26 30.96603 -97.30310 27805 ft 423 kts 207°
2026-04-25 11:26 30.93808 -97.31395 27797 ft 423 kts 207°
2026-04-25 11:26 30.91015 -97.32479 27794 ft 423 kts 207°
2026-04-25 11:26 30.88218 -97.33564 27793 ft 423 kts 207°
2026-04-25 11:27 30.85422 -97.34647 27791 ft 424 kts 207°
2026-04-25 11:27 30.82624 -97.35731 27791 ft 424 kts 207°
2026-04-25 11:27 30.79826 -97.36814 27797 ft 424 kts 207°
2026-04-25 11:27 30.77972 -97.37531 27804 ft 424 kts 207°
2026-04-25 11:28 30.74220 -97.38981 27787 ft 425 kts 206°
2026-04-25 11:28 30.71393 -97.40076 27812 ft 432 kts 206°
2026-04-25 11:28 30.68520 -97.41190 27806 ft 438 kts 206°
2026-04-25 11:28 30.65629 -97.42306 27803 ft 436 kts 206°
2026-04-25 11:29 30.62764 -97.43407 27801 ft 434 kts 206°
2026-04-25 11:29 30.59905 -97.44507 27810 ft 433 kts 206°
2026-04-25 11:29 30.57048 -97.45605 27800 ft 432 kts 206°
2026-04-25 11:29 30.54189 -97.46705 27808 ft 432 kts 206°
2026-04-25 11:30 30.51361 -97.47793 27796 ft 428 kts 206°
2026-04-25 11:30 30.48578 -97.48863 27807 ft 426 kts 206°
2026-04-25 11:30 30.45723 -97.49963 27819 ft 428 kts 206°
2026-04-25 11:30 30.42932 -97.51037 27820 ft 429 kts 206°
2026-04-25 11:31 30.40088 -97.52130 27415 ft 432 kts 206°
2026-04-25 11:31 30.37316 -97.53340 26888 ft 421 kts 212°
2026-04-25 11:31 30.34803 -97.54965 26360 ft 408 kts 218°
2026-04-25 11:31 30.32385 -97.56665 25744 ft 404 kts 218°
2026-04-25 11:32 30.29993 -97.58355 25148 ft 400 kts 218°
2026-04-25 11:32 30.27625 -97.60022 24558 ft 397 kts 217°
2026-04-25 11:32 30.25265 -97.61674 23948 ft 395 kts 217°
2026-04-25 11:32 30.22917 -97.63307 23335 ft 393 kts 216°
2026-04-25 11:33 30.20577 -97.64928 22650 ft 390 kts 216°
2026-04-25 11:33 30.18287 -97.66509 22035 ft 386 kts 216°
2026-04-25 11:33 30.15994 -97.68091 21434 ft 382 kts 216°
2026-04-25 11:33 30.13721 -97.69660 20846 ft 379 kts 215°
2026-04-25 11:34 30.11466 -97.71215 20268 ft 375 kts 215°
2026-04-25 11:34 30.09235 -97.72752 19698 ft 372 kts 215°
2026-04-25 11:34 30.07022 -97.74277 19125 ft 370 kts 214°
2026-04-25 11:34 30.04819 -97.75794 18551 ft 367 kts 214°
2026-04-25 11:35 30.02628 -97.77302 17970 ft 366 kts 214°
2026-04-25 11:35 30.00458 -97.78794 17468 ft 360 kts 214°
2026-04-25 11:35 29.98316 -97.80267 16916 ft 357 kts 213°
2026-04-25 11:35 29.96196 -97.81724 16359 ft 354 kts 213°
2026-04-25 11:36 29.94089 -97.83171 15802 ft 351 kts 213°
2026-04-25 11:36 29.92006 -97.84633 15249 ft 348 kts 217°
2026-04-25 11:36 29.90243 -97.86504 14700 ft 344 kts 232°
2026-04-25 11:36 29.88904 -97.88761 14144 ft 340 kts 244°
2026-04-25 11:37 29.88014 -97.91274 13584 ft 339 kts 251°
2026-04-25 11:37 29.87209 -97.93826 13049 ft 336 kts 251°
2026-04-25 11:37 29.86426 -97.96304 12754 ft 328 kts 250°
2026-04-25 11:37 29.85618 -97.98772 12389 ft 329 kts 250°
2026-04-25 11:38 29.84793 -98.01240 12017 ft 332 kts 250°
2026-04-25 11:38 29.83958 -98.03732 11637 ft 334 kts 250°
2026-04-25 11:38 29.83133 -98.06200 11263 ft 335 kts 250°
2026-04-25 11:38 29.82302 -98.08698 10891 ft 331 kts 250°
2026-04-25 11:39 29.81494 -98.11121 10513 ft 316 kts 250°
2026-04-25 11:39 29.80725 -98.13425 10162 ft 302 kts 250°
2026-04-25 11:39 29.79988 -98.15632 9899 ft 287 kts 250°
2026-04-25 11:39 29.79283 -98.17748 9517 ft 283 kts 251°
2026-04-25 11:40 29.78587 -98.19844 9213 ft 280 kts 250°
2026-04-25 11:40 29.77893 -98.21936 8882 ft 279 kts 250°
2026-04-25 11:40 29.77203 -98.24010 8566 ft 277 kts 250°
2026-04-25 11:40 29.76514 -98.26075 8252 ft 276 kts 250°
2026-04-25 11:41 29.75829 -98.28127 7947 ft 274 kts 250°
2026-04-25 11:41 29.75150 -98.30161 7683 ft 271 kts 250°
2026-04-25 11:41 29.74702 -98.31501 7507 ft 270 kts 250°
2026-04-25 11:41 29.74029 -98.33510 7235 ft 267 kts 250°
2026-04-25 11:42 29.73363 -98.35498 6977 ft 265 kts 250°
2026-04-25 11:42 29.72712 -98.37473 6732 ft 262 kts 250°
2026-04-25 11:42 29.72083 -98.39422 6476 ft 258 kts 250°
2026-04-25 11:42 29.71468 -98.41331 6211 ft 251 kts 250°
2026-04-25 11:43 29.70897 -98.43813 5887 ft 237 kts 269°
2026-04-25 11:43 29.70937 -98.45064 5797 ft 229 kts 272°
2026-04-25 11:43 29.71012 -98.46890 5631 ft 229 kts 271°
2026-04-25 11:43 29.71080 -98.48722 5469 ft 231 kts 271°
2026-04-25 11:44 29.71143 -98.50577 5303 ft 233 kts 270°
2026-04-25 11:44 29.71204 -98.52428 5134 ft 231 kts 270°
2026-04-25 11:44 29.71263 -98.54263 4955 ft 229 kts 270°
2026-04-25 11:44 29.71286 -98.56085 4787 ft 226 kts 261°
2026-04-25 11:45 29.70683 -98.57702 4622 ft 220 kts 229°
2026-04-25 11:45 29.69614 -98.58931 4517 ft 217 kts 220°
2026-04-25 11:45 29.68470 -98.60076 4352 ft 219 kts 220°
2026-04-25 11:45 29.67307 -98.61182 4161 ft 220 kts 211°
2026-04-25 11:46 29.65912 -98.61675 3985 ft 202 kts 181°
2026-04-25 11:46 29.64587 -98.61362 3723 ft 189 kts 157°
2026-04-25 11:46 29.63552 -98.60522 3459 ft 177 kts 138°
2026-04-25 11:46 29.62742 -98.59514 3206 ft 167 kts 134°
2026-04-25 11:47 29.61983 -98.58522 2998 ft 164 kts 135°
2026-04-25 11:47 29.61225 -98.57535 2812 ft 166 kts 135°
2026-04-25 11:47 29.60460 -98.56545 2621 ft 166 kts 135°
2026-04-25 11:47 29.59705 -98.55571 2462 ft 155 kts 135°
2026-04-25 11:48 29.59034 -98.54696 2216 ft 142 kts 135°
2026-04-25 11:48 29.58390 -98.53860 2038 ft 136 kts 135°
2026-04-25 11:48 29.57760 -98.53042 1844 ft 138 kts 133°
2026-04-25 11:48 29.57100 -98.52204 1699 ft 145 kts 134°
2026-04-25 11:49 29.56428 -98.51329 1558 ft 147 kts 134°
2026-04-25 11:49 29.55762 -98.50474 1321 ft 139 kts 133°
2026-04-25 11:49 29.55140 -98.49661 1081 ft 133 kts 132°
2026-04-25 11:49 29.54531 -98.48874 897 ft 134 kts 135°
2026-04-25 11:50 29.53926 -98.48103 797 ft 120 kts 130°
2026-04-25 11:50 29.53518 -98.47581 797 ft 52 kts 131°
2026-04-25 11:50 29.53332 -98.47341 797 ft 23 kts 134°
2026-04-25 11:50 29.53191 -98.47278 797 ft 20 kts 163°
2026-04-25 11:51 29.53078 -98.47204 797 ft 18 kts 133°
2026-04-25 11:51 29.53001 -98.47103 797 ft 16 kts 131°
2026-04-25 11:51 29.52926 -98.47007 797 ft 17 kts 131°
2026-04-25 11:51 29.52855 -98.46915 797 ft 13 kts 132°
2026-04-25 11:52 29.52782 -98.46913 797 ft 10 kts 163°
2026-04-25 11:52 29.52730 -98.46866 797 ft 9 kts 165°
2026-04-25 11:52 29.52677 -98.46898 797 ft 9 kts 219°
2026-04-25 11:52 29.52639 -98.46959 797 ft 9 kts 267°
2026-04-25 11:53 29.52666 -98.47006 797 ft 5 kts 311°
2026-04-25 11:53 29.52676 -98.47019 797 ft 0 kts 311°